Regional Weather Roundup
Issued by NWS San Diego, CA

Home | Current Version | Previous Version | Text Only | Print | Product List | Glossary On
Versions: 1 2 3 4 5 6 7 8 9 10 11 12 13 14 15 16 17 18 19 20 21 22 23 24 25 26 27 28 29 30 31 32 33 34 35 36 37 38 39 40 41 42 43 44 45 46 47 48 49 50
000
ASUS46 KSGX 310910
RWRSGX

SAN DIEGO HOURLY WEATHER ROUNDUP
NATIONAL WEATHER SERVICE SAN DIEGO CA
200 AM PDT FRI OCT 31 2014

NOTE: "FAIR" INDICATES FEW OR NO CLOUDS BELOW 12,000 FEET WITH NO
SIGNIFICANT WEATHER AND/OR OBSTRUCTIONS TO VISIBILITY.

CAZ042-043-060-061-PZZ750-775-311000-

GREATER SAN DIEGO AREA

CITY           SKY/WX    TMP DP  RH WIND       PRES   REMARKS
LINDBERGH FLD  CLOUDY    68  62  81 S5        29.97F
POINT LOMA       N/A     65  62  89 S6          N/A
NATIONAL CITY    N/A     67  63  88 CALM      29.96F
CHULA VISTA      N/A     65  63  91 CALM      29.90F
IMPERIAL BEACH MOCLDY    63  61  93 CALM      29.96F
BROWN FIELD    CLOUDY    66  60  81 S5        29.97F
MIRAMAR MCAS   MOCLDY    64  59  83 S3        29.96F
MONTGOMERY FLD CLOUDY    66  62  87 S3        29.97S

$$

NORTH SAN DIEGO COUNTY

CITY           SKY/WX    TMP DP  RH WIND       PRES   REMARKS
CAMP PENDLETON CLOUDY    58  54  86 CALM      29.97R FOG
OCEANSIDE AP   CLEAR     55  54  96 CALM      29.96S
OCEANSIDE HBR    N/A     62  60  94 E3        29.99R
VISTA            N/A     59  56  87 CALM      29.94F
CARLSBAD       CLEAR     63  59  87 CALM      29.95F
DEL MAR          N/A     63  62  95 CALM      29.98F
FALLBROOK        N/A     61  61 100 CALM      29.96F
ESCONDIDO        N/A     64  60  88 CALM      29.98F
SAN MARCOS       N/A     62  58  86 CALM      29.94F
POWAY            N/A     64  60  86 CALM      29.98S

$$

EAST SAN DIEGO COUNTY

CITY           SKY/WX    TMP DP  RH WIND       PRES   REMARKS
RAMONA         CLOUDY    61  57  87 SE3       29.98F
SANTEE LAKES     N/A     65  62  88 CALM      29.97F
LA MESA          N/A     66  63  91 CALM      29.90F
JAMUL            N/A     63  60  91 CALM      29.96F
DESCANSO N       N/A     52  32  45 CALM      29.84S
CAMPO            N/A     48  39  71 NE3       29.97F

$$

ORANGE COUNTY AND THE LOS ANGELES BASIN

CITY           SKY/WX    TMP DP  RH WIND       PRES   REMARKS
JOHN WAYNE AP  CLEAR     65  58  78 E3        29.96S
LAKE FOREST FR   N/A     60  55  85 CALM      29.86S
SANTA ANA        N/A     60  56  87 CALM      29.92S
HUNTINGTON BCH   N/A     58  56  95 CALM      29.98S
LOS ALAMITOS   FAIR      60  59  99 NE5       29.96S
FULLERTON      CLEAR     62  57  83 E3        29.95F
LONG BEACH     CLEAR     60  58  92 CALM      29.96S
L.A. AP        PTCLDY    65  61  88 CALM      29.97R
L.A. DOWNTOWN  MOCLDY    63  58  83 CALM      29.96S

$$

THE INLAND EMPIRE

CITY           SKY/WX    TMP DP  RH WIND       PRES   REMARKS
CORONA         CLOUDY    51  49  93 CALM      29.98S
CHINO          CLEAR     55  52  89 NW3       29.98S
ONTARIO        PTCLDY    58  54  86 W5        29.97S
RIVERSIDE AP   CLEAR     60  56  86 CALM      29.97S
RIV CYN CREST    N/A     60  59  97 CALM      29.95S
MORENO VALLEY    N/A     58  53  85 CALM      29.15F
MARCH ARB      CLEAR     54  53  96 N1        29.98S
HORSETHIEF CYN   N/A     56  46  67 SW3       29.97S
PERRIS           N/A     59  57  93 CALM      29.96F
MENIFEE          N/A     59  57  93 W1        30.03F
HEMET EAST       N/A     60  34  37 CALM      29.94F
FRENCH VALLEY  FAIR      55  52  88 SE3       29.98S
TEMECULA         N/A     59  57  94 CALM      29.95S

$$

SAN BERNARDINO AND RIVERSIDE COUNTY MOUNTAINS

CITY           SKY/WX    TMP DP  RH WIND       PRES   REMARKS
BIG BEAR AP    CLEAR     32  19  59 CALM      30.16S
ANGELUS OAKS     N/A     48  34  58 CALM      29.86F
PINE COVE        N/A     53  26  35 CALM      29.81F

$$

SOUTHERN DESERT INCLUDING THE COACHELLA VALLEY

CITY           SKY/WX    TMP DP  RH WIND       PRES   REMARKS
PALM SPRINGS   CLEAR     67  48  50 W3        29.88F
THOUSAND PALMS   N/A     74  43  32 NW2       29.84S
PALM DESERT      N/A     67  50  54 CALM        N/A
THERMAL        CLEAR     60  47  61 N3        29.83F
BLYTHE         PTCLDY    67  34  29 N3        29.87F
IMPERIAL AP    CLEAR     65  43  44 SW5       29.84F
EL CENTRO NAS  CLEAR     65  38  36 W5        29.84F
YUMA AZ        PTCLDY    69  40  34 S9        29.86F

$$

UPPER DESERT

CITY           SKY/WX    TMP DP  RH WIND       PRES   REMARKS
VICTORVILLE AP CLEAR     57  41  54 S5        29.99S
HESPERIA         N/A     61  40  45 NW1       30.03F
APPLE VALLEY     N/A     63  35  36 S2        30.05S
PALMDALE       CLEAR     60  40  47 W13       29.98F
LANCASTER      CLEAR     59  40  49 SW8       29.98F
EDWARDS AFB    CLEAR     54  34  46 S7        29.95F
DAGGETT        CLEAR     63  36  36 W12       29.95F
29 PALMS N     PTCLDY    63  34  33 W5        30.01S
NEEDLES        PTCLDY    69  28  21 W6        29.89F

$$

REGIONAL REPORTS

CITY           SKY/WX    TMP DP  RH WIND       PRES   REMARKS
SANTA BARBARA  CLEAR     54  51  90 CALM      29.96R
SANDBERG       CLEAR     57  42  57 S22G29    30.03F
MT. WILSON       N/A     50  25  37 S5          N/A
LAS VEGAS NV   CLOUDY    66  30  26 SW7       29.91F
PHOENIX AZ     MOCLDY    71  46  40 E6        29.89F
TIJUANA        CLOUDY    66  55  68 CALM      29.99
ENSENADA NW      N/A     68  32  26 NW2       29.94F

$$

OFFSHORE ISLANDS

CITY           SKY/WX    TMP DP  RH WIND       PRES   REMARKS
CATALINA ARPT  CLOUDY    58  56  93 SW7       29.99F FOG
SAN NICOLAS IS CLOUDY   N/A N/A N/A SW7       29.97S

$$

MARINE AND OFFSHORE BUOY REPORTS

STATION/POSITION SKY/WX   TEMP    WIND        PRES    SWELL
                          AIR SEA DIR/SP/G            HT/PER/DIR
                          (F)     (DEG/KT/KT) (MB)    (FT/S/D)
TANNER BANKS               66 66  210/  4/  4 1014.4F   5/310/12
S CLEMENTE BASIN           67 70  270/  4/  6 1014.6F   3/290/11
SAN NICOLAS IS.               66                N/A     3/300/11
SO. S. ROSA ISLA           65 67  250/  8/  8 1013.9F   3/11
W. S. BARBARA CH           64 64  170/  2/  4 1013.7S   5/300/11
M. S. BARBARA CH           65 68  240/  6/  8 1014.6R
S. MONICA BASIN            65 67  240/  8/ 10 1015.1R   3/250/12
S PEDRO CHANNEL               70                N/A     2/260/11
DANA POINT                    70                N/A     2/180/15
CMP PENDLETON NS              70                N/A     2/230/13
OCEANSIDE OFFSHR              71                N/A     2/210/15
TORREY PINES OTR              71                N/A     2/260/13
LA JOLLA 1                 67 71  190/  3/  3 1014.6R
MISSION BAY BUOY              70                N/A     2/260/12
SAN DIEGO BAY                 73              1015.1S
POINT LOMA SOUTH              71                N/A     3/270/12

$$




USA.gov is the U.S. government's official web portal to all federal, state and local government web resources and services.